| time (UTC) | temp F | wind direction | speed knots | gust knots | rain 1hr in | rain 24hr in | rain mn in | humidity % | barometer mb |
| 20260507223024 | 54 | 283 | 0.0 | 6.1 | 0.00 | 0.12 | 0.00 | 38 | 1007.2 |
| 20260507221524 | 55 | 207 | 1.7 | 8.7 | 0.00 | 0.12 | 0.00 | 37 | 1007.1 |
| 20260507220025 | 55 | 171 | 0.9 | 9.6 | 0.00 | 0.12 | 0.00 | 38 | 1007.0 |
| 20260507214522 | 56 | 169 | 3.5 | 10.4 | 0.00 | 0.12 | 0.00 | 36 | 1007.0 |
| 20260507213023 | 56 | 213 | 0.9 | 6.1 | 0.00 | 0.12 | 0.00 | 38 | 1006.8 |
| 20260507211533 | 56 | 243 | 3.5 | 12.2 | 0.00 | 0.12 | 0.00 | 37 | 1006.8 |
| 20260507210020 | 56 | 197 | 2.6 | 7.8 | 0.00 | 0.15 | 0.00 | 38 | 1006.8 |
| 20260507204523 | 56 | 182 | 1.7 | 7.0 | 0.00 | 0.15 | 0.00 | 38 | 1006.8 |
| 20260507203023 | 55 | 200 | 0.9 | 5.2 | 0.00 | 0.15 | 0.00 | 42 | 1006.7 |
| 20260507201518 | 56 | 159 | 0.9 | 9.6 | 0.00 | 0.15 | 0.00 | 38 | 1006.7 |
| 20260507200016 | 54 | 175 | 0.9 | 7.0 | 0.00 | 0.22 | 0.00 | 41 | 1006.9 |
| 20260507194516 | 56 | 209 | 0.9 | 10.4 | 0.00 | 0.22 | 0.00 | 38 | 1007.0 |
| 20260507193014 | 56 | 255 | 0.9 | 7.8 | 0.00 | 0.22 | 0.00 | 41 | 1007.2 |
| 20260507191514 | 56 | 191 | 2.6 | 10.4 | 0.00 | 0.22 | 0.00 | 40 | 1007.3 |
| 20260507190012 | 56 | 176 | 0.9 | 4.3 | 0.00 | 0.30 | 0.00 | 44 | 1007.3 |
| 20260507184508 | 55 | 173 | 2.6 | 10.4 | 0.00 | 0.30 | 0.00 | 45 | 1007.7 |
| 20260507183012 | 54 | 167 | 6.1 | 11.3 | 0.00 | 0.30 | 0.00 | 43 | 1007.7 |
| 20260507181507 | 54 | 180 | 0.9 | 8.7 | 0.00 | 0.30 | 0.00 | 42 | 1007.8 |
| 20260507180006 | 55 | 207 | 1.7 | 8.7 | 0.00 | 0.42 | 0.00 | 44 | 1007.9 |
| 20260507174506 | 54 | 192 | 4.3 | 8.7 | 0.00 | 0.42 | 0.00 | 43 | 1007.8 |
| 20260507173006 | 54 | 202 | 0.9 | 20.9 | 0.00 | 0.42 | 0.00 | 44 | 1007.9 |
| 20260507171612 | 54 | 165 | 2.6 | 12.2 | 0.00 | 0.42 | 0.00 | 42 | 1008.1 |
| 20260507170058 | 52 | 224 | 2.6 | 13.9 | 0.00 | 0.55 | 0.00 | 44 | 1008.4 |
| 20260507164557 | 53 | 166 | 5.2 | 17.4 | 0.00 | 0.55 | 0.00 | 44 | 1008.7 |
| 20260507163059 | 53 | 277 | 2.6 | 16.5 | 0.00 | 0.55 | 0.00 | 44 | 1008.8 |
| 20260507161556 | 52 | 196 | 1.7 | 11.3 | 0.00 | 0.55 | 0.00 | 48 | 1008.9 |
| 20260507160054 | 51 | 236 | 3.5 | 13.0 | 0.00 | 0.67 | 0.00 | 56 | 1009.2 |
| 20260507154550 | 51 | 202 | 4.3 | 10.4 | 0.00 | 0.67 | 0.00 | 49 | 1009.5 |
| 20260507153056 | 51 | 355 | 1.7 | 10.4 | 0.00 | 0.67 | 0.00 | 51 | 1009.7 |
| 20260507151548 | 50 | 299 | 1.7 | 13.9 | 0.00 | 0.67 | 0.00 | 53 | 1009.8 |
| 20260507150043 | 49 | 221 | 3.5 | 12.2 | 0.00 | 0.77 | 0.00 | 52 | 1009.7 |
| 20260507144540 | 49 | 192 | 1.7 | 7.8 | 0.00 | 0.77 | 0.00 | 56 | 1009.6 |
| 20260507143040 | 48 | 192 | 0.9 | 6.1 | 0.00 | 0.77 | 0.00 | 61 | 1009.5 |
| 20260507141542 | 47 | 190 | 0.9 | 7.8 | 0.00 | 0.77 | 0.00 | 66 | 1009.7 |
| 20260507140032 | 47 | 173 | 1.7 | 5.2 | 0.00 | 0.86 | 0.00 | 69 | 1009.7 |
| 20260507134529 | 46 | 214 | 1.7 | 7.0 | 0.00 | 0.86 | 0.00 | 70 | 1009.6 |
| 20260507133027 | 46 | 149 | 0.9 | 8.7 | 0.00 | 0.86 | 0.00 | 72 | 1009.7 |
| 20260507131526 | 45 | 320 | 0.0 | 7.8 | 0.00 | 0.86 | 0.00 | 76 | 1009.7 |
| 20260507130026 | 45 | 215 | 0.9 | 8.7 | 0.00 | 0.91 | 0.00 | 79 | 1009.5 |
| 20260507124526 | 44 | 212 | 2.6 | 12.2 | 0.00 | 0.91 | 0.00 | 85 | 1009.3 |
| 20260507123015 | 44 | 286 | 1.7 | 4.3 | 0.00 | 0.91 | 0.00 | 91 | 1009.1 |
| 20260507121513 | 44 | 190 | 1.7 | 4.3 | 0.00 | 0.91 | 0.00 | 93 | 1009.3 |
| 20260507120010 | 43 | 192 | 0.9 | 6.1 | 0.00 | 0.91 | 0.00 | 94 | 1009.1 |
| 20260507114509 | 43 | 188 | 0.9 | 4.3 | 0.00 | 0.91 | 0.00 | 94 | 1008.8 |
| 20260507113012 | 43 | 184 | 0.0 | 0.0 | 0.00 | 0.91 | 0.00 | 94 | 1008.8 |
| 20260507111507 | 43 | 184 | 0.0 | 0.9 | 0.00 | 0.91 | 0.00 | 94 | 1008.7 |
| 20260507110015 | 43 | 184 | 0.0 | 3.5 | 0.00 | 0.91 | 0.00 | 94 | 1008.7 |
| 20260507104505 | 43 | 196 | 0.0 | 0.0 | 0.00 | 0.91 | 0.00 | 94 | 1008.6 |
| 20260507103004 | 43 | 196 | 0.0 | 0.0 | 0.00 | 0.91 | 0.00 | 94 | 1008.7 |
| 20260507101504 | 43 | 196 | 0.0 | 1.7 | 0.00 | 0.91 | 0.00 | 94 | 1008.5 |
| 20260507100003 | 43 | 196 | 0.0 | 0.0 | 0.00 | 0.91 | 0.00 | 94 | 1008.4 |
| 20260507094502 | 43 | 196 | 0.0 | 0.0 | 0.00 | 0.91 | 0.00 | 94 | 1008.4 |
| 20260507093002 | 43 | 196 | 0.0 | 0.0 | 0.00 | 0.91 | 0.00 | 94 | 1008.4 |
| 20260507091501 | 43 | 196 | 0.0 | 0.0 | 0.00 | 0.91 | 0.00 | 94 | 1008.6 |
| 20260507090106 | 43 | 196 | 0.0 | 0.0 | 0.00 | 0.91 | 0.00 | 94 | 1008.5 |
| 20260507084600 | 43 | 196 | 0.0 | 1.7 | 0.00 | 0.91 | 0.00 | 94 | 1008.8 |
| 20260507083100 | 43 | 277 | 0.0 | 0.9 | 0.00 | 0.91 | 0.00 | 94 | 1008.8 |
| 20260507081559 | 43 | 277 | 0.0 | 0.0 | 0.00 | 0.91 | 0.00 | 94 | 1008.6 |
| 20260507074612 | 43 | 296 | 0.0 | 0.0 | 0.00 | 0.91 | 0.00 | 94 | 1008.9 |
| 20260507073056 | 43 | 296 | 0.0 | 0.0 | 0.00 | 0.91 | 0.00 | 94 | 1008.7 |
| 20260507071556 | 43 | 296 | 0.0 | 0.0 | 0.00 | 0.91 | 0.00 | 94 | 1008.4 |
| 20260507070111 | 43 | 296 | 0.0 | 0.0 | 0.00 | 0.92 | 0.00 | 94 | 1008.3 |
| 20260507064605 | 43 | 296 | 0.0 | 0.0 | 0.00 | 0.92 | 0.00 | 94 | 1008.4 |
| 20260507063059 | 43 | 296 | 0.0 | 0.0 | 0.00 | 0.92 | 0.00 | 94 | 1008.4 |
| 20260507061554 | 43 | 296 | 0.0 | 0.0 | 0.00 | 0.92 | 0.00 | 94 | 1008.3 |
| 20260507060052 | 42 | 296 | 0.0 | 0.0 | 0.00 | 0.92 | 0.00 | 94 | 1008.3 |
| 20260507054554 | 43 | 296 | 0.0 | 0.0 | 0.00 | 0.92 | 0.00 | 94 | 1008.6 |
| 20260507053051 | 42 | 296 | 0.0 | 0.0 | 0.00 | 0.92 | 0.00 | 94 | 1009.0 |
| 20260507051553 | 42 | 296 | 0.0 | 0.0 | 0.00 | 0.92 | 0.00 | 94 | 1008.9 |
| 20260507050048 | 42 | 296 | 0.0 | 0.9 | 0.00 | 0.94 | 0.00 | 94 | 1009.1 |
| 20260507044551 | 42 | 296 | 0.0 | 0.0 | 0.00 | 0.94 | 0.00 | 94 | 1009.0 |
| 20260507043049 | 42 | 296 | 0.0 | 1.7 | 0.00 | 0.94 | 0.00 | 94 | 1009.2 |
| 20260507041545 | 42 | 321 | 0.0 | 1.7 | 0.00 | 0.94 | 0.00 | 94 | 1008.7 |
| 20260507040042 | 42 | 306 | 0.0 | 0.0 | 0.00 | 0.98 | 0.94 | 94 | 1008.9 |
| 20260507034542 | 42 | 306 | 0.0 | 0.0 | 0.00 | 0.98 | 0.94 | 94 | 1008.7 |
| 20260507033044 | 43 | 306 | 0.0 | 0.0 | 0.00 | 0.98 | 0.94 | 94 | 1008.7 |
| 20260507031541 | 43 | 306 | 0.0 | 0.0 | 0.00 | 0.98 | 0.94 | 94 | 1009.0 |
| 20260507030043 | 43 | 306 | 0.0 | 0.0 | 0.00 | 0.98 | 0.94 | 94 | 1008.9 |
| 20260507024539 | 43 | 306 | 0.0 | 0.0 | 0.01 | 0.98 | 0.94 | 94 | 1009.0 |
| 20260507023038 | 43 | 306 | 0.0 | 0.0 | 0.02 | 0.98 | 0.94 | 94 | 1009.0 |
| 20260507021539 | 43 | 306 | 0.0 | 0.0 | 0.03 | 0.98 | 0.94 | 94 | 1009.3 |
| 20260507020042 | 43 | 306 | 0.0 | 0.0 | 0.05 | 0.98 | 0.94 | 94 | 1009.3 |
| 20260507014543 | 43 | 306 | 0.0 | 0.0 | 0.05 | 0.97 | 0.93 | 94 | 1009.2 |
| 20260507013047 | 43 | 306 | 0.0 | 1.7 | 0.04 | 0.96 | 0.92 | 94 | 1009.1 |
| 20260507011534 | 43 | 333 | 0.0 | 3.5 | 0.03 | 0.95 | 0.91 | 94 | 1008.9 |
| 20260507010037 | 43 | 261 | 0.9 | 3.5 | 0.03 | 0.93 | 0.89 | 94 | 1009.0 |
| 20260507004532 | 43 | 251 | 0.0 | 2.6 | 0.04 | 0.92 | 0.88 | 94 | 1008.9 |
| 20260507003031 | 43 | 246 | 0.0 | 2.6 | 0.04 | 0.92 | 0.88 | 94 | 1008.6 |
| 20260507001533 | 43 | 243 | 0.0 | 3.5 | 0.05 | 0.92 | 0.88 | 94 | 1008.3 |
| 20260507000029 | 43 | 238 | 0.0 | 4.3 | 0.03 | 0.90 | 0.86 | 94 | 1008.1 |
| 20260506234535 | 43 | 224 | 0.0 | 1.7 | 0.01 | 0.88 | 0.84 | 94 | 1008.0 |
| 20260506233046 | 43 | 274 | 0.9 | 3.5 | 0.02 | 0.88 | 0.84 | 94 | 1007.4 |
| 20260506231529 | 43 | 280 | 0.0 | 7.0 | 0.01 | 0.87 | 0.83 | 94 | 1007.2 |
| 20260506230028 | 43 | 329 | 0.9 | 4.3 | 0.01 | 0.87 | 0.83 | 94 | 1007.1 |
| 20260506224526 | 43 | 303 | 0.0 | 7.8 | 0.01 | 0.87 | 0.83 | 94 | 1007.0 |